Location: Apeadero de Los Molinos-Guadarrama
(40.7091°N, 4.0689°W)
Time: 12:51:05
(UTC+00:00)

Cosmos 1818 - Pass Details

Date: 14 May 2021
Orbit: 771 x 802 km, 65.0° (Epoch: 18 June)

Event Time Altitude Azimuth Distance (km) Brightness Sun altitude
Rises 22:32:56 0° 329° (NNW) 3,318 8.1 -26.1°
Reaches altitude 10° 22:35:23 10° 331° (NNW) 2,385 7.1 -26.3°
Maximum altitude 22:40:53 76° 57° (ENE) 829 3.5 -26.7°
Enters shadow 22:41:04 75° 78° (ENE) 832 3.5 -26.7°
